{"data":{"norad_id":67369,"intl_designator":"2026-004G","name":"BLACKCAT","alt_names":[],"object_type":"PAYLOAD","status":"ACTIVE","operator":null,"country":"US","launch_date":"2026-01-11","launch_site_code":"AFWTR","launch_vehicle":null,"mission":null,"orbit_class":"UNKNOWN","rcs_meters":null,"size_class":null,"mass_kg":null,"dimensions":null,"purposes":[],"wikipedia_slug":null,"has_3d_model":false,"image_url":null,"decayed_at":null,"tle_current":{"epoch":"2026-09-20T12:32:07.603872Z","epoch_age_seconds":98463,"freshness":"FRESH","line1":"1 67369U 26004G   26263.52231023  .00000570  00000+0  68180-4 0  9998","line2":"2 67369  97.8053 260.4010 0006885 178.5205 181.6033 14.87874879 37468","mean_motion":14.87874879,"eccentricity":0.0006885,"inclination_deg":97.8053,"raan_deg":260.401,"arg_perigee_deg":178.5205,"mean_anomaly_deg":181.6033,"bstar":6.818e-5,"rev_number":3746,"period_min":96.78233165465,"perigee_km":599.76906963056,"apogee_km":609.38426635139,"semimajor_km":6982.713667991,"source":"CELESTRAK","updated_at":"2026-09-21T09:00:16.592374Z"}}}